UZB1201 UZSK-UZTT

Flight info

Callsign UZB1201
Flight time N/A
Altitude 29000
Route NIBTI1B NIBTI M168 KUFIM KUFIM2T
Aircraft A320/M-SDE3FGHIRWY/LB1

Departure

Time N/A
Airport UZSK

Arrival

Time 2026-05-04 16:41
Airport Tashkent International Airport (UZTT)
Time Latitude Longitude Altitude Speed Heading
2026-05-04 15:47 38.80997 65.77305 1243 ft 0 kts 75°
2026-05-04 15:53 38.81002 65.77329 1248 ft 3 kts 75°
2026-05-04 15:53 38.81020 65.77349 1239 ft 5 kts 18°
2026-05-04 15:53 38.81040 65.77332 1234 ft 3 kts 301°
2026-05-04 15:54 38.81042 65.77307 1237 ft 5 kts 268°
2026-05-04 15:54 38.81034 65.77262 1245 ft 5 kts 253°
2026-05-04 15:54 38.81001 65.77224 1234 ft 6 kts 202°
2026-05-04 15:54 38.80964 65.77170 1244 ft 12 kts 250°
2026-05-04 15:55 38.80947 65.77078 1244 ft 9 kts 274°
2026-05-04 15:55 38.81001 65.77030 1238 ft 16 kts 343°
2026-05-04 15:55 38.81118 65.76988 1237 ft 19 kts 342°
2026-05-04 15:55 38.81249 65.76939 1233 ft 21 kts 344°
2026-05-04 15:56 38.81361 65.76882 1232 ft 10 kts 320°
2026-05-04 15:56 38.81404 65.76837 1232 ft 7 kts 341°
2026-05-04 15:56 38.81424 65.76866 1232 ft 4 kts 104°
2026-05-04 15:56 38.81404 65.76885 1232 ft 3 kts 166°
2026-05-04 15:57 38.81386 65.76890 1232 ft 2 kts 168°
2026-05-04 15:57 38.81374 65.76893 1232 ft 1 kts 166°
2026-05-04 15:57 38.81286 65.76925 1232 ft 45 kts 163°
2026-05-04 15:57 38.80738 65.77127 1235 ft 115 kts 164°
2026-05-04 15:58 38.79786 65.77480 1243 ft 169 kts 163°
2026-05-04 15:58 38.78657 65.77896 1861 ft 166 kts 164°
2026-05-04 15:58 38.77526 65.78248 2540 ft 164 kts 177°
2026-05-04 15:58 38.76394 65.77964 2998 ft 178 kts 209°
2026-05-04 15:59 38.75482 65.76808 3303 ft 197 kts 248°
2026-05-04 15:59 38.75353 65.74996 3669 ft 215 kts 278°
2026-05-04 15:59 38.75690 65.73078 4123 ft 229 kts 285°
2026-05-04 15:59 38.76163 65.71019 4601 ft 247 kts 286°
2026-05-04 16:00 38.76678 65.68870 5208 ft 262 kts 291°
2026-05-04 16:00 38.77820 65.67025 5806 ft 276 kts 327°
2026-05-04 16:00 38.79661 65.66294 6608 ft 282 kts
2026-05-04 16:00 38.81578 65.66848 7472 ft 285 kts 22°
2026-05-04 16:01 38.83335 65.68020 8363 ft 288 kts 30°
2026-05-04 16:01 38.85041 65.69412 9258 ft 291 kts 31°
2026-05-04 16:01 38.86755 65.70840 10106 ft 295 kts 30°
2026-05-04 16:01 38.88531 65.72251 10487 ft 316 kts 28°
2026-05-04 16:02 38.90500 65.73722 10741 ft 339 kts 27°
2026-05-04 16:02 38.92611 65.75218 11206 ft 352 kts 26°
2026-05-04 16:02 38.97013 65.78212 12646 ft 361 kts 25°
2026-05-04 16:03 38.99228 65.79695 13384 ft 365 kts 24°
2026-05-04 16:03 39.01493 65.81212 14077 ft 368 kts 25°
2026-05-04 16:03 39.03789 65.82761 14750 ft 371 kts 25°
2026-05-04 16:03 39.06060 65.84301 15427 ft 374 kts 25°
2026-05-04 16:04 39.08363 65.85869 16106 ft 376 kts 25°
2026-05-04 16:04 39.13041 65.89063 17468 ft 381 kts 25°
2026-05-04 16:04 39.15377 65.90658 18143 ft 383 kts 25°
2026-05-04 16:05 39.17727 65.92261 18734 ft 386 kts 25°
2026-05-04 16:05 39.20116 65.93889 19307 ft 389 kts 25°
2026-05-04 16:05 39.24945 65.97182 20432 ft 395 kts 25°
2026-05-04 16:06 39.27361 65.98833 20997 ft 398 kts 25°
2026-05-04 16:06 39.33940 66.03333 22424 ft 405 kts 26°
2026-05-04 16:07 39.37264 66.05615 23097 ft 409 kts 26°
2026-05-04 16:07 39.44892 66.10861 24379 ft 418 kts 26°
2026-05-04 16:08 39.47477 66.12642 24765 ft 420 kts 26°
2026-05-04 16:08 39.55245 66.18105 25891 ft 428 kts 31°
2026-05-04 16:09 39.59851 66.23131 26608 ft 436 kts 40°
2026-05-04 16:09 39.64322 66.28484 27310 ft 440 kts 40°
2026-05-04 16:10 39.68083 66.32981 27874 ft 444 kts 40°
2026-05-04 16:11 39.74680 66.41521 28827 ft 454 kts 51°
2026-05-04 16:11 39.76905 66.46167 28998 ft 453 kts 57°
2026-05-04 16:12 39.85808 66.66058 29013 ft 447 kts 57°
2026-05-04 16:13 39.92044 66.80041 29022 ft 447 kts 57°
2026-05-04 16:14 39.98267 66.94034 29028 ft 446 kts 57°
2026-05-04 16:16 40.06001 67.11581 29032 ft 445 kts 57°
2026-05-04 16:17 40.13691 67.29089 29036 ft 444 kts 57°
2026-05-04 16:18 40.19829 67.43139 29040 ft 444 kts 57°
2026-05-04 16:19 40.27431 67.60651 29028 ft 442 kts 58°
2026-05-04 16:20 40.34994 67.78187 29019 ft 442 kts 58°
2026-05-04 16:22 40.42521 67.95707 29017 ft 442 kts 58°
2026-05-04 16:23 40.51535 68.16859 28999 ft 442 kts 59°
2026-05-04 16:24 40.57465 68.30851 27123 ft 433 kts 59°
2026-05-04 16:25 40.60384 68.37769 25818 ft 428 kts 59°
2026-05-04 16:26 40.68025 68.49384 23303 ft 416 kts 45°
2026-05-04 16:26 40.73905 68.57563 21615 ft 405 kts 47°
2026-05-04 16:27 40.77030 68.63669 20640 ft 398 kts 58°
2026-05-04 16:28 40.81343 68.72898 19157 ft 390 kts 58°
2026-05-04 16:28 40.85575 68.81986 17629 ft 384 kts 59°
2026-05-04 16:29 40.91090 68.93859 15551 ft 376 kts 59°
2026-05-04 16:30 40.95182 69.02689 13941 ft 375 kts 59°
2026-05-04 16:31 40.97880 69.08536 12825 ft 371 kts 59°
2026-05-04 16:31 41.01895 69.17266 11080 ft 367 kts 58°
2026-05-04 16:32 41.05708 69.25599 10376 ft 333 kts 58°
2026-05-04 16:33 41.08028 69.30651 10113 ft 309 kts 58°
2026-05-04 16:33 41.10221 69.35434 9426 ft 307 kts 58°
2026-05-04 16:34 41.12397 69.40197 8520 ft 296 kts 58°
2026-05-04 16:34 41.13466 69.42537 7845 ft 293 kts 59°
2026-05-04 16:35 41.16563 69.49327 5867 ft 282 kts 58°
2026-05-04 16:35 41.21122 69.52742 5130 ft 239 kts 359°
2026-05-04 16:36 41.22728 69.52525 5014 ft 230 kts 352°
2026-05-04 16:36 41.25751 69.52021 4803 ft 209 kts 352°
2026-05-04 16:37 41.27983 69.49985 4566 ft 204 kts 287°
2026-05-04 16:37 41.28038 69.48154 4140 ft 200 kts 258°
2026-05-04 16:37 41.27632 69.44539 3562 ft 188 kts 261°
2026-05-04 16:38 41.27284 69.41307 3096 ft 162 kts 261°
2026-05-04 16:39 41.26841 69.37222 2492 ft 143 kts 261°
2026-05-04 16:39 41.26557 69.34622 2122 ft 143 kts 261°
2026-05-04 16:40 41.26267 69.31975 1690 ft 145 kts 260°
2026-05-04 16:40 41.25972 69.29312 1399 ft 143 kts 262°
2026-05-04 16:41 41.25747 69.27215 1379 ft 85 kts 260°
2026-05-04 16:41 41.25622 69.26510 1379 ft 9 kts 171°
2026-05-04 16:42 41.25498 69.26628 1380 ft 7 kts 110°
2026-05-04 16:43 41.25517 69.26858 1380 ft 15 kts 82°
2026-05-04 16:43 41.25427 69.27036 1381 ft 16 kts 201°
2026-05-04 16:43 41.25366 69.26946 1382 ft 12 kts 233°
2026-05-04 16:44 41.25197 69.26725 1378 ft 6 kts 237°
2026-05-04 16:45 41.25193 69.26590 1378 ft 10 kts 269°
2026-05-04 16:46 41.25166 69.26443 1381 ft 2 kts 184°
2026-05-04 16:46 41.25158 69.26443 1379 ft 0 kts 180°